FW2710 Weather Reports


Display with metric or nautical units.
time (UTC)temp
F
wind
direction
speed
MPH
gust
MPH
rain 1hr
in
rain 24hr
in
rain mn
in
humidity
%
barometer
mb
20260509082026 52 0 0.0 6.0 0.00 0.05 0.00 95 1007.0
20260509081540 52 0 0.0 2.0 0.00 0.05 0.00 95 1006.9
20260509081026 52 0 0.0 2.0 0.00 0.05 0.00 95 1006.9
20260509080525 52 0 0.0 2.0 0.00 0.05 0.00 95 1006.9
20260509080043 52 0 0.0 3.0 0.00 0.05 0.00 95 1006.9
20260509075530 52 0 0.0 3.0 0.00 0.05 0.00 95 1007.0
20260509075027 52 0 0.0 2.0 0.00 0.05 0.00 95 1007.1
20260509074543 51 0 0.0 3.0 0.00 0.05 0.00 94 1007.0
20260509074026 51 0 0.0 4.0 0.00 0.05 0.00 94 1007.0
20260509073526 51 0 0.0 4.0 0.00 0.05 0.00 94 1006.9
20260509073112 51 287 0.0 3.0 0.00 0.05 0.00 94 1007.0
20260509072526 51 0 0.0 0.0 0.00 0.05 0.00 94 1007.0
20260509072026 51 0 0.0 1.0 0.00 0.05 0.00 94 1007.1
20260509071543 51 0 0.0 1.0 0.00 0.05 0.00 94 1007.1
20260509071026 50 0 0.0 0.0 0.00 0.05 0.00 93 1007.0
20260509070526 50 0 0.0 0.0 0.00 0.05 0.00 93 1007.0
20260509070041 50 0 0.0 0.0 0.00 0.05 0.00 93 1007.2
20260509065525 50 0 0.0 0.0 0.00 0.05 0.00 93 1006.9
20260509065025 50 0 0.0 0.0 0.00 0.05 0.00 93 1006.8
20260509064539 50 0 0.0 0.0 0.00 0.05 0.00 93 1006.7
20260509064028 50 0 0.0 0.0 0.00 0.05 0.00 93 1006.8
20260509063525 50 0 0.0 0.0 0.00 0.05 0.00 93 1007.1
20260509063036 50 0 0.0 0.0 0.00 0.05 0.00 93 1007.2
20260509062525 50 0 0.0 0.0 0.00 0.05 0.00 92 1007.1
20260509062027 50 0 0.0 0.0 0.00 0.05 0.00 92 1007.2
20260509061544 51 0 0.0 0.0 0.00 0.05 0.00 92 1007.3
20260509061026 51 0 0.0 0.0 0.00 0.05 0.00 92 1007.4
20260509060529 51 0 0.0 0.0 0.00 0.05 0.00 92 1007.3
20260509060052 51 0 0.0 0.0 0.00 0.05 0.00 92 1007.4
20260509055526 51 0 0.0 0.0 0.00 0.05 0.00 92 1007.4
20260509055025 51 0 0.0 0.0 0.00 0.05 0.00 92 1007.5
20260509054547 51 0 0.0 0.0 0.00 0.05 0.00 92 1007.5
20260509054026 51 0 0.0 0.0 0.00 0.05 0.00 92 1007.5
20260509053526 51 0 0.0 0.0 0.00 0.05 0.00 92 1007.5
20260509053039 52 0 0.0 0.0 0.00 0.05 0.00 92 1007.6
20260509052525 52 0 0.0 0.0 0.00 0.05 0.00 91 1007.7
20260509052026 52 0 0.0 0.0 0.00 0.05 0.00 91 1007.8
20260509051535 52 0 0.0 0.0 0.00 0.05 0.00 91 1007.8
20260509051026 52 0 0.0 0.0 0.00 0.05 0.00 91 1007.8
20260509050526 52 0 0.0 0.0 0.00 0.05 0.00 91 1007.7
20260509050050 52 0 0.0 0.0 0.00 0.05 0.00 91 1007.6
20260509045526 52 0 0.0 0.0 0.00 0.05 0.05 90 1007.8
20260509045026 52 0 0.0 0.0 0.00 0.05 0.05 90 1007.8
20260509044542 52 0 0.0 0.0 0.00 0.05 0.05 90 1007.8
20260509044026 52 0 0.0 0.0 0.00 0.05 0.05 90 1007.9
20260509043526 52 0 0.0 0.0 0.00 0.05 0.05 90 1007.9
20260509043038 53 0 0.0 0.0 0.00 0.05 0.05 90 1008.0
20260509042526 53 0 0.0 0.0 0.00 0.05 0.05 90 1008.0
20260509042026 53 0 0.0 0.0 0.00 0.05 0.05 90 1008.0
20260509041538 53 0 0.0 0.0 0.00 0.05 0.05 90 1007.8
20260509041025 53 0 0.0 0.0 0.00 0.05 0.05 90 1007.8
20260509040525 53 0 0.0 0.0 0.00 0.05 0.05 90 1007.8
20260509040059 53 0 0.0 0.0 0.00 0.05 0.05 90 1007.9
20260509035526 53 0 0.0 0.0 0.00 0.09 0.05 90 1007.8
20260509035026 53 0 0.0 0.0 0.00 0.09 0.05 90 1007.8
20260509034549 53 0 0.0 2.0 0.00 0.09 0.05 90 1008.0
20260509034026 53 0 0.0 2.0 0.00 0.09 0.05 90 1008.2
20260509033526 53 0 0.0 0.0 0.00 0.09 0.05 90 1008.2
20260509033041 53 0 0.0 0.0 0.00 0.09 0.05 89 1008.1
20260509032526 53 0 0.0 0.0 0.00 0.09 0.05 89 1008.3
20260509032025 53 0 0.0 0.0 0.00 0.09 0.05 89 1008.4
20260509031541 53 0 0.0 0.0 0.00 0.09 0.05 89 1008.5
20260509031026 53 0 0.0 0.0 0.00 0.09 0.05 88 1008.5
20260509030526 53 0 0.0 0.0 0.00 0.09 0.05 88 1008.6
20260509030037 53 0 0.0 0.0 0.00 0.09 0.05 88 1008.6
20260509025525 54 0 0.0 0.0 0.00 0.13 0.05 88 1008.7
20260509025025 54 0 0.0 0.0 0.00 0.13 0.05 88 1008.7
20260509024536 54 0 0.0 0.0 0.00 0.13 0.05 87 1008.6
20260509024026 54 0 0.0 0.0 0.00 0.13 0.05 87 1008.6
20260509023527 54 0 0.0 0.0 0.00 0.13 0.05 87 1008.6
20260509023045 54 0 0.0 0.0 0.00 0.13 0.05 87 1008.6
20260509022526 54 0 0.0 0.0 0.00 0.13 0.05 87 1008.6
20260509022026 54 0 0.0 0.0 0.00 0.13 0.05 86 1008.5
20260509021545 54 0 0.0 0.0 0.00 0.13 0.05 86 1008.6
20260509021025 54 0 0.0 2.0 0.00 0.13 0.05 86 1008.5
20260509020526 54 0 0.0 2.0 0.00 0.13 0.05 86 1008.4
20260509020041 54 0 0.0 2.0 0.00 0.13 0.05 86 1008.5
20260509015526 54 0 0.0 2.0 0.00 0.13 0.05 86 1008.4
20260509015026 54 0 0.0 2.0 0.00 0.13 0.05 86 1008.5
20260509014536 55 0 0.0 0.0 0.00 0.13 0.05 85 1008.3
20260509014025 55 0 0.0 0.0 0.00 0.13 0.05 85 1008.3
20260509013525 55 0 0.0 0.0 0.00 0.13 0.05 84 1008.3
20260509013050 55 0 0.0 0.0 0.00 0.13 0.05 84 1008.3
20260509012522 55 0 0.0 0.0 0.00 0.13 0.05 84 1008.3
20260509012025 55 0 0.0 0.0 0.00 0.13 0.05 83 1008.3
20260509011555 55 0 0.0 0.0 0.00 0.13 0.05 83 1008.3
20260509011027 55 0 0.0 0.0 0.00 0.13 0.05 83 1008.2
20260509010526 56 0 0.0 0.0 0.00 0.13 0.05 82 1008.1
20260509010045 56 0 0.0 0.0 0.00 0.13 0.05 82 1008.0
20260509005527 56 0 0.0 0.0 0.00 0.13 0.05 82 1008.0
20260509005025 56 0 0.0 0.0 0.00 0.13 0.05 82 1008.1
20260509004546 56 0 0.0 0.0 0.00 0.13 0.05 82 1008.0
20260509004026 56 0 0.0 0.0 0.00 0.13 0.05 82 1008.0
20260509003526 57 0 0.0 0.0 0.00 0.13 0.05 82 1007.8
20260509003039 57 0 0.0 3.0 0.00 0.13 0.05 82 1007.8
20260509002522 57 0 0.0 3.0 0.00 0.13 0.05 81 1008.0
20260509002025 57 0 0.0 6.0 0.00 0.13 0.05 81 1007.9
20260509001535 57 0 0.0 8.0 0.00 0.13 0.05 81 1007.9
20260509001026 58 0 1.0 8.0 0.00 0.13 0.05 80 1008.0
20260509000522 58 0 0.0 6.0 0.00 0.13 0.05 80 1008.2
20260509000046 58 0 0.0 6.0 0.00 0.13 0.05 79 1008.3
20260508235525 58 0 2.0 6.0 0.00 0.13 0.05 79 1008.4
20260508235025 58 0 0.0 6.0 0.00 0.13 0.05 79 1008.3
20260508234540 58 287 2.0 6.0 0.00 0.13 0.05 79 1008.3
20260508234022 59 287 2.0 7.0 0.00 0.13 0.05 79 1008.2
20260508233526 59 0 1.0 8.0 0.00 0.13 0.05 78 1008.3
20260508233040 59 0 2.0 8.0 0.00 0.13 0.05 78 1008.3
20260508232525 59 287 2.0 10.0 0.00 0.13 0.05 76 1008.5
20260508232025 60 287 2.0 10.0 0.00 0.13 0.05 75 1008.4
20260508231537 60 287 3.0 8.0 0.00 0.13 0.05 74 1008.4
20260508231025 61 287 3.0 8.0 0.00 0.13 0.05 74 1008.4
20260508230525 61 0 1.0 10.0 0.00 0.13 0.05 74 1008.3
20260508230037 61 287 3.0 10.0 0.00 0.13 0.05 74 1008.4
20260508225523 61 0 3.0 7.0 0.00 0.13 0.05 74 1008.3
20260508225029 61 0 0.0 3.0 0.00 0.13 0.05 74 1008.5
20260508224537 61 0 0.0 0.0 0.00 0.13 0.05 75 1008.5
20260508224027 61 0 0.0 6.0 0.00 0.13 0.05 75 1008.5
20260508223526 61 0 0.0 6.0 0.00 0.13 0.05 75 1008.5
20260508223046 61 0 0.0 0.0 0.00 0.13 0.05 76 1008.5
20260508222528 61 0 0.0 0.0 0.00 0.13 0.05 74 1008.6
20260508222026 61 0 0.0 7.0 0.00 0.13 0.05 75 1008.6
20260508221541 61 0 0.0 7.0 0.00 0.13 0.05 75 1008.6
20260508221029 61 0 0.0 4.0 0.00 0.13 0.05 75 1008.7
20260508220526 60 0 0.0 0.0 0.00 0.13 0.05 75 1008.7
20260508220036 60 0 0.0 2.0 0.00 0.13 0.05 75 1008.8
20260508215522 60 0 0.0 4.0 0.00 0.14 0.05 73 1008.8
20260508215026 60 0 0.0 6.0 0.00 0.14 0.05 73 1008.9
20260508214553 60 0 0.0 6.0 0.00 0.14 0.05 71 1008.8
20260508214025 60 0 0.0 6.0 0.00 0.14 0.05 71 1008.8
20260508213525 60 0 0.0 4.0 0.00 0.14 0.05 72 1008.8
20260508213044 60 0 0.0 4.0 0.00 0.14 0.05 71 1008.8
20260508212525 60 287 0.0 8.0 0.00 0.14 0.05 71 1008.8
20260508212026 60 0 0.0 8.0 0.00 0.14 0.05 72 1008.7
20260508211543 60 0 2.0 9.0 0.00 0.14 0.05 69 1008.7
20260508211022 60 0 0.0 9.0 0.00 0.14 0.05 71 1008.8
20260508210526 60 0 1.0 9.0 0.00 0.14 0.05 70 1008.8
20260508210040 60 0 1.0 8.0 0.00 0.14 0.05 72 1008.7
20260508205525 60 287 1.0 6.0 0.00 0.14 0.05 72 1008.7
20260508205029 60 0 1.0 8.0 0.00 0.14 0.05 72 1008.7
20260508204543 60 287 0.0 8.0 0.00 0.14 0.05 71 1008.7
20260508204035 60 287 1.0 7.0 0.00 0.14 0.05 74 1008.7
20260508203525 60 0 0.0 4.0 0.00 0.14 0.05 74 1008.7
20260508203035 60 0 0.0 6.0 0.00 0.14 0.05 74 1008.8
20260508202528 60 0 0.0 6.0 0.00 0.14 0.05 75 1008.8
20260508202022 60 0 0.0 4.0 0.00 0.14 0.05 72 1008.7
20260508201538 60 0 0.0 4.0 0.00 0.14 0.05 72 1008.8
20260508201026 60 0 0.0 4.0 0.00 0.14 0.05 71 1008.7
20260508200526 60 0 0.0 3.0 0.00 0.14 0.05 73 1008.9
20260508200043 60 0 0.0 6.0 0.00 0.14 0.05 74 1009.0
20260508195525 60 0 0.0 6.0 0.00 0.20 0.05 75 1009.1
20260508195026 60 0 0.0 6.0 0.00 0.20 0.05 77 1009.2
20260508194539 60 0 0.0 0.0 0.00 0.20 0.05 78 1009.0
20260508194025 60 0 0.0 3.0 0.00 0.20 0.05 79 1009.0
20260508193525 59 0 0.0 3.0 0.00 0.20 0.05 77 1009.2
20260508193052 59 0 0.0 3.0 0.00 0.20 0.05 78 1009.3
20260508192526 59 0 0.0 4.0 0.00 0.20 0.05 79 1009.4
20260508192026 59 0 0.0 4.0 0.00 0.20 0.05 78 1009.5
20260508191542 59 0 0.0 6.0 0.00 0.20 0.05 78 1009.6
20260508191025 59 0 0.0 7.0 0.00 0.20 0.05 76 1009.6
20260508190523 60 287 0.0 7.0 0.00 0.20 0.05 76 1009.7
20260508190036 60 287 1.0 8.0 0.00 0.20 0.05 75 1009.8
20260508185522 60 287 0.0 8.0 0.00 0.20 0.05 76 1009.9
20260508185026 60 287 0.0 6.0 0.00 0.20 0.05 76 1009.9
20260508184557 60 0 0.0 7.0 0.00 0.20 0.05 77 1009.9
20260508184024 59 0 1.0 10.0 0.00 0.20 0.05 78 1010.0
20260508183529 59 0 1.0 10.0 0.00 0.20 0.05 80 1009.9
20260508183037 59 0 0.0 8.0 0.00 0.20 0.05 80 1010.0
20260508182525 59 0 0.0 8.0 0.00 0.20 0.05 81 1010.1
20260508182022 58 0 0.0 7.0 0.00 0.20 0.05 81 1010.1
20260508181539 58 287 0.0 7.0 0.01 0.20 0.05 82 1010.0
20260508181026 58 0 0.0 7.0 0.02 0.20 0.05 83 1010.0
20260508180526 58 287 0.0 7.0 0.03 0.20 0.05 84 1009.9
20260508180041 57 0 0.0 8.0 0.03 0.20 0.05 85 1009.9
20260508175525 57 287 1.0 8.0 0.04 0.20 0.05 86 1010.0
20260508175027 56 0 0.0 7.0 0.04 0.20 0.05 86 1010.2
20260508174539 56 287 0.0 6.0 0.04 0.20 0.05 86 1010.3
20260508174023 55 287 0.0 4.0 0.04 0.20 0.05 86 1010.4
20260508173526 55 0 0.0 7.0 0.04 0.20 0.05 87 1010.3
20260508173043 55 0 0.0 7.0 0.04 0.20 0.05 87 1010.4
20260508172525 55 0 0.0 7.0 0.05 0.20 0.05 86 1010.5
20260508172027 55 0 0.0 4.0 0.05 0.20 0.05 86 1010.2
20260508171544 55 0 0.0 4.0 0.04 0.19 0.04 85 1011.0
20260508171022 55 287 0.0 4.0 0.03 0.18 0.03 84 1011.1
20260508170525 55 287 0.0 2.0 0.02 0.17 0.02 84 1011.0
20260508170041 55 0 0.0 1.0 0.02 0.17 0.02 83 1010.9
20260508165522 56 0 0.0 0.0 0.01 0.16 0.01 83 1011.0
20260508165025 56 0 0.0 0.0 0.01 0.16 0.01 82 1011.0
20260508164536 56 0 0.0 0.0 0.01 0.16 0.01 81 1010.9
20260508164029 56 0 0.0 0.0 0.01 0.16 0.01 81 1010.8
20260508163525 56 0 0.0 0.0 0.01 0.16 0.01 81 1010.8
20260508163046 56 0 0.0 0.0 0.01 0.16 0.01 80 1011.0
20260508162525 56 0 0.0 2.0 0.00 0.15 0.00 79 1010.9
20260508162026 57 0 0.0 6.0 0.00 0.15 0.00 78 1011.1
20260508161543 57 0 0.0 6.0 0.00 0.15 0.00 76 1011.0
20260508161026 57 0 0.0 7.0 0.00 0.15 0.00 73 1011.1
20260508160524 58 0 1.0 7.0 0.00 0.15 0.00 72 1011.2
20260508160059 58 287 0.0 7.0 0.00 0.15 0.00 72 1011.3
20260508155527 58 0 1.0 8.0 0.00 0.15 0.00 72 1011.3
20260508155027 58 287 1.0 9.0 0.00 0.15 0.00 71 1011.4
20260508154539 59 287 0.0 9.0 0.00 0.15 0.00 72 1011.3
20260508154030 59 287 0.0 9.0 0.00 0.15 0.00 71 1011.4
20260508153526 59 0 1.0 11.0 0.00 0.15 0.00 71 1011.5
20260508153044 60 0 2.0 11.0 0.00 0.15 0.00 69 1011.4
20260508152527 60 0 3.0 11.0 0.00 0.15 0.00 70 1011.6
20260508152025 60 287 1.0 10.0 0.00 0.15 0.00 72 1011.6
20260508151538 59 287 0.0 10.0 0.00 0.15 0.00 71 1011.4
20260508151026 60 287 1.0 12.0 0.00 0.15 0.00 69 1011.4
20260508150525 60 0 2.0 12.0 0.00 0.15 0.00 69 1011.0
20260508150043 60 287 1.0 8.0 0.00 0.15 0.00 70 1011.1
20260508145525 60 0 1.0 8.0 0.00 0.15 0.00 71 1011.1
20260508145029 59 0 1.0 8.0 0.00 0.15 0.00 70 1011.2
20260508144543 59 0 1.0 8.0 0.00 0.15 0.00 69 1011.2
20260508144025 59 0 2.0 8.0 0.00 0.15 0.00 71 1011.3
20260508143526 59 287 1.0 8.0 0.00 0.15 0.00 71 1011.3
20260508143053 59 287 1.0 9.0 0.00 0.15 0.00 72 1011.3
20260508142525 58 287 3.0 9.0 0.00 0.15 0.00 73 1011.3
20260508142026 58 287 4.0 8.0 0.00 0.15 0.00 73 1011.3
20260508141548 58 0 2.0 8.0 0.00 0.15 0.00 74 1011.4
20260508141026 58 0 3.0 8.0 0.00 0.15 0.00 72 1011.4
20260508140525 57 287 1.0 7.0 0.00 0.15 0.00 74 1011.3
20260508140041 57 287 1.0 7.0 0.00 0.15 0.00 75 1011.3
20260508135526 56 287 1.0 8.0 0.00 0.15 0.00 75 1011.4
20260508135026 56 287 0.0 8.0 0.00 0.15 0.00 75 1011.4
20260508134535 56 287 0.0 6.0 0.00 0.15 0.00 75 1011.5
20260508134026 55 0 1.0 6.0 0.00 0.15 0.00 75 1011.4
20260508133525 55 287 1.0 6.0 0.00 0.15 0.00 75 1011.4
20260508133052 55 0 0.0 7.0 0.00 0.15 0.00 77 1011.4
20260508132525 55 0 0.0 7.0 0.00 0.15 0.00 77 1011.4
20260508132027 54 0 0.0 6.0 0.00 0.15 0.00 77 1011.5
20260508131540 54 287 0.0 6.0 0.00 0.15 0.00 79 1011.4
20260508131024 54 0 0.0 2.0 0.00 0.15 0.00 79 1011.4
20260508130526 54 0 0.0 2.0 0.00 0.15 0.00 81 1011.6
20260508130057 53 0 0.0 2.0 0.00 0.15 0.00 81 1011.6
20260508125525 53 287 0.0 4.0 0.00 0.15 0.00 82 1011.5
20260508125026 52 0 0.0 4.0 0.00 0.15 0.00 83 1011.6
20260508124538 52 287 0.0 2.0 0.00 0.15 0.00 84 1011.6
20260508124025 51 0 0.0 2.0 0.00 0.15 0.00 84 1011.7
20260508123525 51 0 0.0 0.0 0.00 0.15 0.00 86 1011.7
20260508123043 50 0 0.0 0.0 0.00 0.15 0.00 86 1011.7
20260508122523 50 0 0.0 0.0 0.00 0.15 0.00 87 1011.8
20260508122025 49 0 0.0 0.0 0.00 0.15 0.00 88 1011.9
20260508121559 49 0 0.0 0.0 0.00 0.15 0.00 89 1011.8
20260508121025 48 0 0.0 0.0 0.00 0.15 0.00 89 1011.9
20260508120526 48 0 0.0 0.0 0.00 0.15 0.00 90 1011.9
20260508120039 48 0 0.0 0.0 0.00 0.15 0.00 90 1011.9
20260508115525 47 0 0.0 0.0 0.00 0.15 0.00 90 1011.7
20260508115024 47 0 0.0 0.0 0.00 0.15 0.00 90 1011.9
20260508114539 47 0 0.0 0.0 0.00 0.15 0.00 90 1011.8
20260508114024 47 0 0.0 0.0 0.00 0.15 0.00 90 1011.8
20260508113528 47 0 0.0 0.0 0.00 0.15 0.00 90 1011.7
20260508113047 47 0 0.0 0.0 0.00 0.15 0.00 90 1011.4
20260508112526 46 0 0.0 0.0 0.00 0.15 0.00 90 1011.4
20260508112025 46 0 0.0 0.0 0.00 0.15 0.00 90 1011.2
20260508111535 46 0 0.0 0.0 0.00 0.15 0.00 90 1011.3
20260508111024 46 0 0.0 0.0 0.00 0.15 0.00 90 1011.4
20260508110525 46 0 0.0 0.0 0.00 0.15 0.00 90 1011.3
20260508110047 46 0 0.0 0.0 0.00 0.15 0.00 90 1011.3
20260508105525 46 0 0.0 0.0 0.00 0.15 0.00 90 1011.5
20260508105025 46 0 0.0 0.0 0.00 0.15 0.00 90 1011.3
20260508104539 46 0 0.0 0.0 0.00 0.15 0.00 90 1011.4
20260508104025 47 0 0.0 0.0 0.00 0.15 0.00 90 1011.5
20260508103526 47 0 0.0 0.0 0.00 0.15 0.00 90 1011.5
20260508103040 47 0 0.0 0.0 0.00 0.15 0.00 90 1011.6
20260508102522 47 0 0.0 0.0 0.00 0.15 0.00 90 1011.6
20260508102024 47 0 0.0 0.0 0.00 0.15 0.00 90 1011.6
20260508101538 47 0 0.0 0.0 0.00 0.15 0.00 90 1011.5
20260508101028 47 0 0.0 0.0 0.00 0.15 0.00 90 1011.6
20260508100525 47 0 0.0 0.0 0.00 0.15 0.00 89 1011.6
20260508100041 48 0 0.0 0.0 0.00 0.15 0.00 89 1011.6
20260508095615 48 0 0.0 0.0 0.00 0.15 0.00 89 1011.6
20260508095024 48 0 0.0 0.0 0.00 0.15 0.00 89 1011.7
20260508094547 48 0 0.0 0.0 0.00 0.15 0.00 89 1011.8
20260508094028 48 0 0.0 0.0 0.00 0.15 0.00 89 1011.8
20260508093525 48 0 0.0 0.0 0.00 0.15 0.00 89 1011.7
20260508093039 48 0 0.0 0.0 0.00 0.15 0.00 89 1011.9
20260508092525 48 0 0.0 0.0 0.00 0.15 0.00 89 1012.0
20260508092024 48 0 0.0 0.0 0.00 0.15 0.00 89 1012.1
20260508091539 48 0 0.0 0.0 0.00 0.15 0.00 88 1012.1
20260508091026 48 0 0.0 0.0 0.00 0.15 0.00 88 1012.0
20260508090525 48 0 0.0 0.0 0.00 0.15 0.00 88 1011.9
20260508090040 48 0 0.0 0.0 0.00 0.15 0.00 87 1011.9
20260508085526 48 0 0.0 0.0 0.00 0.15 0.00 87 1011.9
20260508085026 48 0 0.0 0.0 0.00 0.15 0.00 87 1011.9
20260508084538 48 0 0.0 0.0 0.00 0.15 0.00 86 1012.0
20260508084028 48 0 0.0 0.0 0.00 0.15 0.00 86 1012.0
20260508083524 48 0 0.0 0.0 0.00 0.15 0.00 85 1012.1
20260508083122 49 0 0.0 0.0 0.00 0.15 0.00 85 1012.1
20260508082524 49 0 0.0 0.0 0.00 0.15 0.00 85 1012.2